Retour au catalogue

DELTA 2 R/B(2)

ActifGTO
NORAD 22923·ROCKET BODY·🇺🇸 United States

Lancé Dec 8, 1993 depuis Cape Canaveral Space Force Station

Loading…

TLE

PériméSource: Space-Track

Époque: Sep 12, 2026, 11:21 UTC

1 22923U 93076C   26255.47321249 -.00000122  00000-0  20125-2 0  9993
2 22923  22.9284 234.7564 7092086 298.4721 332.1303  2.24129989268336

Suivez DELTA 2 R/B(2) en temps réel avec AllMySat

Download on the App Store